EW5855 Weather Reports


Display with metric or nautical units.
time (UTC)temp
F
wind
direction
speed
MPH
gust
MPH
rain 1hr
in
rain 24hr
in
rain mn
in
humidity
%
barometer
mb
20260903205535 81 243 2.0 4.0 0.00 0.00 0.00 79 1011.6
20260903204531 81 248 3.0 7.0 0.00 0.00 0.00 79 1011.6
20260903203526 80 257 4.0 9.0 0.00 0.00 0.00 80 1011.5
20260903202522 81 217 3.0 6.0 0.00 0.00 0.00 79 1011.5
20260903201518 81 202 2.0 7.0 0.00 0.00 0.00 79 1011.6
20260903200535 79 218 2.0 4.0 0.00 0.00 0.00 82 1011.6
20260903195531 80 250 4.0 7.0 0.00 0.00 0.00 80 1011.8
20260903194527 80 253 4.0 9.0 0.00 0.00 0.00 80 1012.0
20260903193524 80 260 4.0 10.0 0.00 0.00 0.00 81 1012.0
20260903192520 79 275 3.0 6.0 0.00 0.00 0.00 83 1012.0
20260903191515 79 232 2.0 6.0 0.00 0.00 0.00 83 1012.1
20260903190531 78 240 3.0 7.0 0.00 0.00 0.00 84 1012.2
20260903185527 78 232 3.0 9.0 0.00 0.00 0.00 85 1012.3
20260903184523 78 220 3.0 6.0 0.00 0.00 0.00 86 1012.2
20260903183519 77 238 2.0 4.0 0.00 0.00 0.00 86 1012.4
20260903182535 77 231 2.0 4.0 0.00 0.00 0.00 87 1012.4
20260903181530 77 236 3.0 8.0 0.00 0.00 0.00 86 1012.5
20260903180546 76 224 2.0 6.0 0.00 0.00 0.00 87 1012.7
20260903175522 76 240 2.0 4.0 0.00 0.00 0.00 88 1012.8
20260903174558 75 214 1.0 2.0 0.00 0.00 0.00 90 1012.8
20260903173534 75 199 0.0 2.0 0.00 0.00 0.00 89 1013.0
20260903172530 75 221 1.0 3.0 0.00 0.00 0.00 88 1013.0
20260903171526 76 242 2.0 3.0 0.00 0.00 0.00 86 1013.1
20260903170522 75 228 1.0 3.0 0.00 0.00 0.00 88 1013.1
20260903165518 74 227 2.0 4.0 0.00 0.00 0.00 89 1013.3
20260903164534 74 231 2.0 4.0 0.00 0.00 0.00 91 1013.3
20260903163530 73 253 1.0 4.0 0.00 0.00 0.00 92 1013.3
20260903162526 72 231 1.0 3.0 0.00 0.00 0.00 93 1013.5
20260903161522 72 237 1.0 2.0 0.00 0.00 0.00 94 1013.7
20260903160518 72 238 1.0 2.0 0.00 0.00 0.00 93 1013.7
20260903155554 72 204 2.0 6.0 0.00 0.00 0.00 92 1013.6
20260903154530 72 246 2.0 6.0 0.00 0.00 0.00 91 1013.8
20260903153526 72 213 2.0 3.0 0.00 0.00 0.00 93 1013.8
20260903152522 71 220 1.0 3.0 0.00 0.00 0.00 93 1014.0
20260903151517 71 214 0.0 1.0 0.00 0.00 0.00 94 1014.1
20260903150534 70 229 1.0 2.0 0.00 0.00 0.00 94 1014.1
20260903145528 70 218 0.0 2.0 0.00 0.00 0.00 95 1014.1
20260903144524 69 163 0.0 1.0 0.00 0.00 0.00 97 1014.0
20260903143521 68 18 1.0 1.0 0.00 0.00 0.00 98 1014.2
20260903142516 68 42 1.0 2.0 0.00 0.00 0.00 98 1014.3
20260903141532 68 53 1.0 2.0 0.00 0.00 0.00 97 1014.1
20260903140527 69 269 0.0 1.0 0.00 0.00 0.00 96 1014.1
20260903135523 69 0.0 0.0 0.00 0.00 0.00 98 1014.1
20260903134539 68 193 0.0 1.0 0.00 0.00 0.00 98 1014.3
20260903133535 68 187 1.0 1.0 0.00 0.00 0.00 98 1014.3
20260903132530 68 193 0.0 1.0 0.00 0.00 0.00 98 1014.3
20260903131526 67 0.0 0.0 0.00 0.00 0.00 98 1014.4
20260903130522 67 0.0 0.0 0.00 0.00 0.00 98 1014.3
20260903125519 67 256 1.0 3.0 0.00 0.00 0.00 99 1014.2
20260903124535 67 0.0 0.0 0.00 0.00 0.00 99 1014.4
20260903123531 67 0.0 0.0 0.00 0.00 0.00 99 1014.3
20260903122547 66 0.0 0.0 0.00 0.00 0.00 99 1014.3
20260903121523 66 0.0 0.0 0.00 0.00 0.00 99 1014.5
20260903120519 66 0.0 0.0 0.00 0.00 0.00 99 1014.3
20260903115535 66 0.0 0.0 0.00 0.00 0.00 99 1014.4
20260903114531 66 0.0 0.0 0.00 0.00 0.00 99 1014.5
20260903113527 66 0.0 0.0 0.00 0.00 0.00 99 1014.5
20260903112523 66 174 0.0 1.0 0.00 0.00 0.00 99 1014.5
20260903111538 65 192 0.0 1.0 0.00 0.00 0.00 99 1014.5
20260903110535 65 0.0 0.0 0.00 0.00 0.00 99 1014.6
20260903105531 65 214 0.0 1.0 0.00 0.00 0.00 99 1014.5
20260903104527 65 203 0.0 1.0 0.00 0.00 0.00 99 1014.4
20260903103523 65 190 0.0 1.0 0.00 0.00 0.00 99 1014.3
20260903102519 65 195 0.0 1.0 0.00 0.00 0.00 99 1014.4
20260903101515 65 209 0.0 1.0 0.00 0.00 0.00 99 1014.4
20260903100531 65 209 0.0 1.0 0.00 0.00 0.00 99 1014.3
20260903095527 65 193 0.0 1.0 0.00 0.00 0.00 99 1014.3
20260903094522 65 217 0.0 1.0 0.00 0.00 0.00 99 1014.1
20260903093538 65 195 0.0 1.0 0.00 0.00 0.00 99 1014.3
20260903092534 65 224 1.0 2.0 0.00 0.00 0.00 99 1014.2
20260903091529 65 237 2.0 3.0 0.00 0.00 0.00 99 1014.3
20260903090524 66 233 2.0 4.0 0.00 0.00 0.00 98 1014.3
20260903085521 66 233 1.0 3.0 0.00 0.00 0.00 97 1014.3
20260903084536 67 243 3.0 6.0 0.00 0.00 0.00 95 1014.4
20260903083532 67 263 4.0 8.0 0.00 0.00 0.00 94 1014.6
20260903082528 67 253 2.0 6.0 0.00 0.00 0.00 94 1014.5
20260903081523 67 254 1.0 2.0 0.00 0.00 0.00 94 1014.4
20260903080519 67 241 1.0 2.0 0.00 0.00 0.00 93 1014.5
20260903075535 67 260 2.0 4.0 0.00 0.00 0.00 92 1014.6
20260903074530 67 270 4.0 6.0 0.00 0.00 0.00 92 1014.6
20260903073527 67 230 1.0 2.0 0.00 0.00 0.00 92 1014.4
20260903072522 67 264 4.0 9.0 0.00 0.00 0.00 91 1014.6
20260903071518 67 263 3.0 4.0 0.00 0.00 0.00 91 1014.5
20260903070534 67 246 3.0 7.0 0.00 0.00 0.00 91 1014.5
20260903065530 67 251 2.0 4.0 0.00 0.00 0.00 91 1014.5
20260903064526 67 244 1.0 3.0 0.00 0.00 0.00 91 1014.7
20260903063522 67 241 2.0 6.0 0.00 0.00 0.00 90 1014.7
20260903062517 67 234 2.0 6.0 0.00 0.00 0.00 90 1014.8
20260903061534 67 223 3.0 8.0 0.00 0.00 0.00 90 1014.7
20260903060530 67 251 3.0 8.0 0.00 0.00 0.00 90 1014.9
20260903055525 66 228 3.0 6.0 0.00 0.00 0.00 91 1015.1
20260903054520 66 215 2.0 3.0 0.00 0.00 0.00 90 1015.2
20260903053517 67 220 1.0 3.0 0.00 0.00 0.00 89 1015.4
20260903052533 67 240 4.0 7.0 0.00 0.00 0.00 87 1015.6
20260903051529 67 222 2.0 6.0 0.00 0.00 0.00 86 1015.8
20260903050544 67 253 2.0 3.0 0.00 0.00 0.00 85 1015.4
20260903045515 67 224 2.0 4.0 0.00 0.00 0.00 85 1015.6
20260903044531 67 225 3.0 7.0 0.00 0.00 0.00 84 1015.3
20260903043527 67 208 2.0 6.0 0.00 0.00 0.00 85 1015.5
20260903042522 66 222 2.0 8.0 0.00 0.00 0.00 86 1015.6
20260903041518 66 217 1.0 6.0 0.00 0.00 0.00 86 1015.9
20260903040554 66 214 0.0 1.0 0.00 0.00 0.00 89 1015.8
20260903035529 66 249 2.0 4.0 0.00 0.00 0.00 88 1015.8
20260903034525 67 245 2.0 6.0 0.00 0.00 0.00 86 1015.8
20260903033521 67 225 2.0 7.0 0.00 0.00 0.00 85 1015.7
20260903032517 67 221 3.0 9.0 0.00 0.00 0.00 86 1016.0
20260903031553 66 227 1.0 2.0 0.00 0.00 0.00 90 1016.3
20260903030528 67 187 0.0 1.0 0.00 0.00 0.00 88 1016.7
20260903025523 67 236 2.0 4.0 0.00 0.00 0.00 86 1017.0
20260903024519 67 247 2.0 6.0 0.00 0.00 0.00 86 1016.8
20260903023534 67 222 2.0 4.0 0.00 0.00 0.00 86 1016.7
20260903022530 67 229 2.0 8.0 0.00 0.00 0.00 86 1016.7
20260903021546 67 207 3.0 7.0 0.00 0.00 0.00 87 1017.0
20260903020521 67 229 3.0 7.0 0.00 0.00 0.00 88 1017.3
20260903015517 66 211 2.0 7.0 0.00 0.00 0.00 91 1017.4
20260903014553 66 203 1.0 3.0 0.00 0.00 0.00 94 1017.5
20260903013528 66 205 0.0 1.0 0.00 0.00 0.00 93 1017.8
20260903012525 66 235 1.0 2.0 0.00 0.00 0.00 95 1017.8
20260903011521 66 226 1.0 2.0 0.00 0.00 0.00 96 1017.7
20260903010517 66 0.0 0.0 0.00 0.00 0.00 97 1017.6
20260903005533 66 0.0 0.0 0.00 0.00 0.00 98 1017.5
20260903004528 66 0.0 0.0 0.00 0.00 0.00 97 1017.6
20260903003524 66 203 0.0 1.0 0.00 0.00 0.00 96 1017.6
20260903002520 67 228 0.0 1.0 0.00 0.00 0.00 95 1017.4
20260903001517 67 50 1.0 2.0 0.00 0.00 0.00 94 1017.2
20260903000534 67 148 0.0 1.0 0.00 0.00 0.00 94 1016.6
20260902235530 67 198 0.0 1.0 0.00 0.00 0.00 95 1017.2
20260902234526 67 270 1.0 2.0 0.00 0.00 0.00 91 1016.6
20260902233523 68 178 0.0 1.0 0.00 0.00 0.00 92 1016.4
20260902232519 67 180 1.0 2.0 0.00 0.00 0.00 92 1016.8
20260902231534 67 0.0 0.0 0.00 0.00 0.00 95 1017.1
20260902230548 67 0.0 0.0 0.00 0.00 0.00 95 1017.4
20260902225524 68 0.0 0.0 0.00 0.00 0.00 94 1017.8
20260902224519 68 0.0 0.0 0.00 0.00 0.00 94 1018.4
20260902223535 69 0.0 0.0 0.00 0.00 0.00 91 1018.8
20260902222530 69 0.0 0.0 0.00 0.00 0.00 90 1018.8
20260902221526 70 0.0 0.0 0.00 0.00 0.00 91 1018.9
20260902220522 70 0.0 0.0 0.00 0.00 0.00 88 1019.1
20260902215517 70 0.0 0.0 0.00 0.00 0.00 88 1019.0
20260902214533 69 179 1.0 2.0 0.00 0.00 0.00 89 1019.0
20260902213528 70 183 0.0 1.0 0.00 0.00 0.00 92 1019.2
20260902212523 70 182 0.0 2.0 0.00 0.00 0.00 92 1019.2
20260902211520 70 191 1.0 1.0 0.00 0.00 0.00 89 1019.3
20260902210535 71 195 0.0 2.0 0.00 0.00 0.00 88 1019.1